Tracking 29892 objects as of 21-Nov-2024
HD Live streaming from Space Station
objects crossing your sky now

CZ-6A DEB

Track CZ-6A DEB now!
10-day predictions


NORAD ID: 55533
Int'l Code: 2022-151YF
Perigee: 836.5 km
Apogee: 897.4 km
Inclination: 98.8 °
Period: 102.1 minutes
Semi major axis: 7237 km
RCS: Unknown
Launch date: November 11, 2022
Source: People's Republic of China (PRC)
Launch site: Taiyaun Space Center, China (TSC)

Note: This is SATELLITE DEBRIS
Your satellite tracking list
Your tracking list is empty




NASA's NSSDC Master Catalog

Two Line Element Set (TLE):
1 55533U 22151YF  24324.99636508  .00000194  00000-0  13379-3 0  9993
2 55533  98.8225 324.9392 0042115 153.6398 206.6928 14.09875987 98780
Source of the keplerian elements: AFSPC